This is the latest recevied weather packets stored in our database for station/object W6MAF. If no packets are shown the sender has not sent any weather packets the latest 10 day(s).
| Time | Temp. | Humidity | Pressure | Rain* | Wind** | Luminosity | Snow |
|---|---|---|---|---|---|---|---|
| 1788140280 | 80° F | 6% | - | 0 in | 18 mph, 222° | - | - |
| 1788139979 | 80° F | 6% | - | 0 in | 18 mph, 198° | - | - |
| 1788139681 | 81° F | 6% | - | 0 in | 17 mph, 195° | - | - |
| 1788139383 | 81° F | 6% | - | 0 in | 16 mph, 203° | - | - |
| 1788139085 | 81° F | 6% | - | 0 in | 12 mph, 176° | - | - |
| 1788138788 | 81° F | 7% | - | 0 in | 14 mph, 204° | - | - |
| 1788138490 | 82° F | 6% | - | 0 in | 13 mph, 217° | - | - |
| 1788138189 | 82° F | 6% | - | 0 in | 18 mph, 212° | - | - |
| 1788137891 | 82° F | 6% | - | 0 in | 13 mph, 201° | - | - |
| 1788137594 | 82° F | 7% | - | 0 in | 15 mph, 190° | - | - |
| 1788137296 | 82° F | 7% | - | 0 in | 12 mph, 210° | - | - |
| 1788137055 | 82° F | 8% | - | 0 in | 15 mph, 198° | - | - |
| 1788136998 | 82° F | 8% | - | 0 in | 15 mph, 198° | - | - |
| 1788136700 | 82° F | 8% | - | 0 in | 15 mph, 176° | - | - |
| 1788136399 | 83° F | 7% | - | 0 in | 15 mph, 194° | - | - |
| 1788136102 | 82° F | 7% | - | 0 in | 19 mph, 180° | - | - |
| 1788135804 | 83° F | 7% | - | 0 in | 17 mph, 210° | - | - |
| 1788135506 | 83° F | 7% | - | 0 in | 19 mph, 169° | - | - |
| 1788135208 | 82° F | 7% | - | 0 in | 18 mph, 190° | - | - |
| 1788134911 | 83° F | 7% | - | 0 in | 20 mph, 181° | - | - |
| 1788134610 | 83° F | 7% | - | 0 in | 22 mph, 190° | - | - |
| 1788134312 | 83° F | 7% | - | 0 in | 21 mph, 197° | - | - |
| 1788134014 | 83° F | 7% | - | 0 in | 21 mph, 201° | - | - |
| 1788133419 | 83° F | 6% | - | 0 in | 19 mph, 203° | - | - |
| 1788133121 | 84° F | 6% | - | 0 in | 22 mph, 195° | - | - |
* Rain latest hour (hover to see other rain measurements)
** Current wind speed in m/s (hover to see current wind gust speed)